User: anonymous   Login
Location: Sungai Anya
(2.6167°N, 114.0500°E)
Time: 14:05:19
(UTC+00:00)
Language:

MOS 1-B Rocket - Orbit

View from above orbital plane
View from above orbital plane
View from above satellite
View from above satellite

Ground track
Ground track

The orbit data is extracted from the following two-line orbital elements,

1 20491U 90013D   22019.73388900 -.00000672  00000-0 -11908-2 0  9999
2 20491  99.0113 195.3209 0468029 334.0496  23.7805 13.03575787519318
Epoch (UTC): 19 January 2022 17:36:48
Eccentricity: 0.0468029
inclination: 99.0113°
perigee height: 891 km
apogee height: 1605 km
right ascension of ascending node: 195.3209°
argument of perigee: 334.0496°
revolutions per day: 13.03575787
mean anomaly at epoch: 23.7805°
orbit number at epoch: 51931

The dashed part of the orbit path shows where the satellite is in the earth's shadow,  

DLR